Time,TemperatureF,DewpointF,PressureIn,WindDirection,WindDirectionDegrees,WindSpeedMPH,WindSpeedGustMPH,Humidity,HourlyPrecipIn,Conditions,Clouds,dailyrainin,SoftwareType,DateUTC
2013-09-17 00:00:00,53.0,47.7,30.24,NE,46,0.0,5.0,82,0.00,,,0.02,VWS V14.01,2013-09-17 04:00:00,
2013-09-17 00:01:00,53.0,47.7,30.24,NE,46,0.0,5.0,82,0.00,,,0.02,VWS V14.01,2013-09-17 04:01:00,
2013-09-17 00:06:00,52.7,47.0,30.24,NE,47,0.0,3.0,81,0.00,,,0.00,VWS V14.01,2013-09-17 04:06:00,
2013-09-17 00:11:00,52.6,46.6,30.24,NE,47,0.0,3.0,80,0.00,,,0.00,VWS V14.01,2013-09-17 04:11:00,
2013-09-17 00:16:00,52.4,46.1,30.25,NE,46,0.0,2.0,79,0.00,,,0.00,VWS V14.01,2013-09-17 04:16:00,
2013-09-17 00:21:00,52.2,45.9,30.25,NE,45,0.0,2.0,79,0.00,,,0.00,VWS V14.01,2013-09-17 04:21:00,
2013-09-17 00:26:00,52.0,45.4,30.25,NE,39,1.0,2.0,78,0.00,,,0.00,VWS V14.01,2013-09-17 04:26:00,
2013-09-17 00:31:00,51.8,45.2,30.25,NE,36,0.0,5.0,78,0.00,,,0.00,VWS V14.01,2013-09-17 04:31:00,
2013-09-17 00:36:00,51.6,45.0,30.25,NE,36,0.0,2.0,78,0.00,,,0.00,VWS V14.01,2013-09-17 04:36:00,
2013-09-17 00:41:00,51.5,44.9,30.25,NNE,31,0.0,2.0,78,0.00,,,0.00,VWS V14.01,2013-09-17 04:41:00,
2013-09-17 00:46:00,51.3,44.7,30.25,NE,36,0.0,3.0,78,0.00,,,0.00,VWS V14.01,2013-09-17 04:46:00,
2013-09-17 00:51:00,51.1,44.8,30.25,NE,42,0.0,3.0,79,0.00,,,0.00,VWS V14.01,2013-09-17 04:51:00,
2013-09-17 00:56:00,50.9,44.6,30.25,NE,43,0.0,1.0,79,0.00,,,0.00,VWS V14.01,2013-09-17 04:56:00,
2013-09-17 01:01:00,50.7,44.8,30.25,NE,43,0.0,1.0,80,0.00,,,0.00,VWS V14.01,2013-09-17 05:01:00,
2013-09-17 01:06:00,50.5,44.6,30.25,NE,43,0.0,1.0,80,0.00,,,0.00,VWS V14.01,2013-09-17 05:06:00,
2013-09-17 01:11:00,50.3,44.7,30.25,NE,45,0.0,1.0,81,0.00,,,0.00,VWS V14.01,2013-09-17 05:11:00,
2013-09-17 01:16:00,50.2,44.6,30.26,NE,45,0.0,0.0,81,0.00,,,0.00,VWS V14.01,2013-09-17 05:16:00,
2013-09-17 01:21:00,50.2,44.6,30.26,ENE,78,0.0,1.0,81,0.00,,,0.00,VWS V14.01,2013-09-17 05:21:00,
2013-09-17 01:26:00,50.1,44.8,30.26,ENE,78,0.0,0.0,82,0.00,,,0.00,VWS V14.01,2013-09-17 05:26:00,
2013-09-17 01:31:00,50.1,45.2,30.27,ENE,61,1.0,2.0,83,0.00,,,0.00,VWS V14.01,2013-09-17 05:31:00,
2013-09-17 01:36:00,50.1,45.5,30.27,NE,51,0.0,2.0,84,0.00,,,0.00,VWS V14.01,2013-09-17 05:36:00,
2013-09-17 01:41:00,50.1,45.5,30.27,NE,51,1.0,2.0,84,0.00,,,0.00,VWS V14.01,2013-09-17 05:41:00,
2013-09-17 01:46:00,50.1,45.5,30.27,NE,51,0.0,0.0,84,0.00,,,0.00,VWS V14.01,2013-09-17 05:46:00,
2013-09-17 01:51:00,50.0,45.7,30.27,NE,53,0.0,2.0,85,0.00,,,0.00,VWS V14.01,2013-09-17 05:51:00,
2013-09-17 01:56:00,50.0,45.7,30.27,ENE,67,2.0,2.0,85,0.00,,,0.00,VWS V14.01,2013-09-17 05:56:00,
2013-09-17 02:01:00,50.0,45.7,30.27,ENE,67,0.0,2.0,85,0.00,,,0.00,VWS V14.01,2013-09-17 06:01:00,
2013-09-17 02:06:00,50.0,45.7,30.27,ENE,67,0.0,1.0,85,0.00,,,0.00,VWS V14.01,2013-09-17 06:06:00,
2013-09-17 02:11:00,50.0,45.7,30.27,NE,38,0.0,3.0,85,0.00,,,0.00,VWS V14.01,2013-09-17 06:11:00,
2013-09-17 02:16:00,50.0,45.4,30.27,NE,41,0.0,2.0,84,0.00,,,0.00,VWS V14.01,2013-09-17 06:16:00,
2013-09-17 02:21:00,49.9,45.0,30.27,NE,45,1.0,3.0,83,0.00,,,0.00,VWS V14.01,2013-09-17 06:21:00,
2013-09-17 02:26:00,49.9,44.6,30.27,NE,51,0.0,1.0,82,0.00,,,0.00,VWS V14.01,2013-09-17 06:26:00,
2013-09-17 02:31:00,49.9,44.3,30.28,NNE,32,0.0,4.0,81,0.00,,,0.00,VWS V14.01,2013-09-17 06:31:00,
2013-09-17 02:36:00,49.9,44.3,30.28,NE,42,1.0,3.0,81,0.00,,,0.00,VWS V14.01,2013-09-17 06:36:00,
2013-09-17 02:41:00,49.8,43.6,30.28,NE,49,0.0,4.0,79,0.00,,,0.00,VWS V14.01,2013-09-17 06:41:00,
2013-09-17 02:46:00,49.7,43.5,30.28,NE,52,0.0,2.0,79,0.00,,,0.00,VWS V14.01,2013-09-17 06:46:00,
2013-09-17 02:51:00,49.7,43.5,30.28,NE,52,0.0,2.0,79,0.00,,,0.00,VWS V14.01,2013-09-17 06:51:00,
2013-09-17 02:56:00,49.5,42.6,30.28,NE,52,0.0,2.0,77,0.00,,,0.00,VWS V14.01,2013-09-17 06:56:00,
2013-09-17 03:01:00,49.3,42.1,30.28,NE,45,0.0,2.0,76,0.00,,,0.00,VWS V14.01,2013-09-17 07:01:00,
2013-09-17 03:06:00,49.1,41.9,30.28,NE,45,0.0,2.0,76,0.00,,,0.00,VWS V14.01,2013-09-17 07:06:00,
2013-09-17 03:11:00,48.9,42.0,30.28,NE,45,0.0,2.0,77,0.00,,,0.00,VWS V14.01,2013-09-17 07:11:00,
2013-09-17 03:16:00,48.7,41.5,30.29,NE,46,0.0,1.0,76,0.00,,,0.00,VWS V14.01,2013-09-17 07:16:00,
2013-09-17 03:21:00,48.4,41.2,30.29,NE,43,0.0,1.0,76,0.00,,,0.00,VWS V14.01,2013-09-17 07:21:00,
2013-09-17 03:26:00,48.3,41.1,30.29,NE,43,0.0,2.0,76,0.00,,,0.00,VWS V14.01,2013-09-17 07:26:00,
2013-09-17 03:31:00,48.1,40.9,30.30,NE,42,0.0,2.0,76,0.00,,,0.00,VWS V14.01,2013-09-17 07:31:00,
2013-09-17 03:36:00,47.9,41.0,30.30,NE,43,0.0,1.0,77,0.00,,,0.00,VWS V14.01,2013-09-17 07:36:00,
2013-09-17 03:41:00,47.7,40.5,30.30,NE,43,0.0,1.0,76,0.00,,,0.00,VWS V14.01,2013-09-17 07:41:00,
2013-09-17 03:46:00,47.5,40.7,30.29,NE,46,0.0,1.0,77,0.00,,,0.00,VWS V14.01,2013-09-17 07:46:00,
2013-09-17 03:51:00,47.3,40.5,30.29,NE,46,0.0,2.0,77,0.00,,,0.00,VWS V14.01,2013-09-17 07:51:00,
2013-09-17 03:56:00,47.1,40.3,30.29,NE,46,0.0,0.0,77,0.00,,,0.00,VWS V14.01,2013-09-17 07:56:00,
2013-09-17 04:01:00,47.0,40.2,30.30,NE,46,0.0,1.0,77,0.00,,,0.00,VWS V14.01,2013-09-17 08:01:00,
2013-09-17 04:06:00,46.9,40.4,30.30,NE,46,0.0,0.0,78,0.00,,,0.00,VWS V14.01,2013-09-17 08:06:00,
2013-09-17 04:11:00,46.8,40.3,30.30,NE,46,0.0,0.0,78,0.00,,,0.00,VWS V14.01,2013-09-17 08:11:00,
2013-09-17 04:16:00,46.7,40.2,30.30,NE,46,0.0,0.0,78,0.00,,,0.00,VWS V14.01,2013-09-17 08:16:00,
2013-09-17 04:21:00,46.5,40.0,30.30,NE,46,0.0,0.0,78,0.00,,,0.00,VWS V14.01,2013-09-17 08:21:00,
2013-09-17 04:26:00,46.4,40.2,30.30,NE,46,0.0,0.0,79,0.00,,,0.00,VWS V14.01,2013-09-17 08:26:00,
2013-09-17 04:31:00,46.3,40.2,30.30,NE,46,0.0,0.0,79,0.00,,,0.00,VWS V14.01,2013-09-17 08:31:00,
2013-09-17 04:36:00,46.1,40.0,30.30,NE,46,0.0,0.0,79,0.00,,,0.00,VWS V14.01,2013-09-17 08:36:00,
2013-09-17 04:41:00,45.9,39.8,30.30,NE,46,0.0,0.0,79,0.00,,,0.00,VWS V14.01,2013-09-17 08:41:00,
2013-09-17 04:46:00,45.8,40.0,30.31,NE,46,0.0,0.0,80,0.00,,,0.00,VWS V14.01,2013-09-17 08:46:00,
2013-09-17 04:51:00,45.5,39.7,30.31,NE,46,0.0,0.0,80,0.00,,,0.00,VWS V14.01,2013-09-17 08:51:00,
2013-09-17 04:56:00,45.3,39.8,30.31,NE,46,0.0,0.0,81,0.00,,,0.00,VWS V14.01,2013-09-17 08:56:00,
2013-09-17 05:01:00,45.1,39.9,30.32,NE,46,0.0,0.0,82,0.00,,,0.00,VWS V14.01,2013-09-17 09:01:00,
2013-09-17 05:06:00,44.9,39.8,30.32,NE,46,0.0,0.0,82,0.00,,,0.00,VWS V14.01,2013-09-17 09:06:00,
2013-09-17 05:11:00,44.7,39.5,30.32,NE,46,0.0,0.0,82,0.00,,,0.00,VWS V14.01,2013-09-17 09:11:00,
2013-09-17 05:16:00,44.4,39.6,30.32,NE,46,0.0,0.0,83,0.00,,,0.00,VWS V14.01,2013-09-17 09:16:00,
2013-09-17 05:21:00,44.0,39.5,30.32,NE,46,0.0,0.0,84,0.00,,,0.00,VWS V14.01,2013-09-17 09:21:00,
2013-09-17 05:26:00,43.7,39.2,30.32,NE,46,0.0,0.0,84,0.00,,,0.00,VWS V14.01,2013-09-17 09:26:00,
2013-09-17 05:31:00,43.4,39.2,30.33,NE,46,0.0,0.0,85,0.00,,,0.00,VWS V14.01,2013-09-17 09:31:00,
2013-09-17 05:36:00,43.3,39.1,30.33,NE,46,0.0,0.0,85,0.00,,,0.00,VWS V14.01,2013-09-17 09:36:00,
2013-09-17 05:41:00,43.2,39.3,30.33,NE,46,0.0,0.0,86,0.00,,,0.00,VWS V14.01,2013-09-17 09:41:00,
2013-09-17 05:46:00,43.1,39.2,30.33,NE,48,0.0,0.0,86,0.00,,,0.00,VWS V14.01,2013-09-17 09:46:00,
2013-09-17 05:51:00,43.1,39.2,30.33,NE,48,0.0,1.0,86,0.00,,,0.00,VWS V14.01,2013-09-17 09:51:00,
2013-09-17 05:56:00,43.0,39.1,30.33,NE,48,0.0,0.0,86,0.00,,,0.00,VWS V14.01,2013-09-17 09:56:00,
2013-09-17 06:01:00,43.0,39.1,30.34,NE,47,0.0,0.0,86,0.00,,,0.00,VWS V14.01,2013-09-17 10:01:00,
2013-09-17 06:06:00,43.0,39.1,30.34,NE,47,0.0,0.0,86,0.00,,,0.00,VWS V14.01,2013-09-17 10:06:00,
2013-09-17 06:11:00,43.0,39.1,30.34,NE,47,0.0,0.0,86,0.00,,,0.00,VWS V14.01,2013-09-17 10:11:00,
2013-09-17 06:16:00,42.9,39.0,30.34,NE,47,0.0,0.0,86,0.00,,,0.00,VWS V14.01,2013-09-17 10:16:00,
2013-09-17 06:21:00,42.9,39.0,30.34,NE,47,0.0,0.0,86,0.00,,,0.00,VWS V14.01,2013-09-17 10:21:00,
2013-09-17 06:26:00,42.8,39.2,30.34,NE,47,0.0,0.0,87,0.00,,,0.00,VWS V14.01,2013-09-17 10:26:00,
2013-09-17 06:31:00,42.7,39.1,30.35,NE,47,0.0,0.0,87,0.00,,,0.00,VWS V14.01,2013-09-17 10:31:00,
2013-09-17 06:36:00,42.6,39.0,30.35,NE,47,0.0,0.0,87,0.00,,,0.00,VWS V14.01,2013-09-17 10:36:00,
2013-09-17 06:41:00,42.6,39.0,30.35,NE,47,0.0,0.0,87,0.00,,,0.00,VWS V14.01,2013-09-17 10:41:00,
2013-09-17 06:46:00,42.6,39.3,30.35,NE,47,0.0,2.0,88,0.00,,,0.00,VWS V14.01,2013-09-17 10:46:00,
2013-09-17 06:51:00,42.7,39.4,30.35,NE,47,1.0,2.0,88,0.00,,,0.00,VWS V14.01,2013-09-17 10:51:00,
2013-09-17 06:56:00,42.8,39.2,30.35,NE,48,0.0,0.0,87,0.00,,,0.00,VWS V14.01,2013-09-17 10:56:00,
2013-09-17 07:01:00,43.0,39.4,30.36,NE,47,0.0,2.0,87,0.00,,,0.00,VWS V14.01,2013-09-17 11:01:00,
2013-09-17 07:06:00,43.2,39.3,30.36,NE,47,0.0,2.0,86,0.00,,,0.00,VWS V14.01,2013-09-17 11:06:00,
2013-09-17 07:11:00,43.4,39.5,30.36,NE,45,0.0,2.0,86,0.00,,,0.00,VWS V14.01,2013-09-17 11:11:00,
2013-09-17 07:16:00,43.5,39.3,30.36,NE,45,0.0,2.0,85,0.00,,,0.00,VWS V14.01,2013-09-17 11:16:00,
2013-09-17 07:21:00,43.8,39.6,30.36,ENE,67,0.0,4.0,85,0.00,,,0.00,VWS V14.01,2013-09-17 11:21:00,
2013-09-17 07:26:00,44.0,39.5,30.36,WNW,300,1.0,3.0,84,0.00,,,0.00,VWS V14.01,2013-09-17 11:26:00,
2013-09-17 07:31:00,44.4,39.6,30.37,North,349,0.0,3.0,83,0.00,,,0.00,VWS V14.01,2013-09-17 11:31:00,
2013-09-17 07:36:00,44.8,39.7,30.37,NE,42,1.0,3.0,82,0.00,,,0.00,VWS V14.01,2013-09-17 11:36:00,
2013-09-17 07:41:00,45.2,39.7,30.37,NE,47,0.0,3.0,81,0.00,,,0.00,VWS V14.01,2013-09-17 11:41:00,
2013-09-17 07:46:00,45.7,39.9,30.37,ENE,75,2.0,4.0,80,0.00,,,0.00,VWS V14.01,2013-09-17 11:46:00,
2013-09-17 07:51:00,46.0,39.9,30.37,NNE,32,4.0,5.0,79,0.00,,,0.00,VWS V14.01,2013-09-17 11:51:00,
2013-09-17 07:56:00,46.2,40.1,30.37,East,98,2.0,3.0,79,0.00,,,0.00,VWS V14.01,2013-09-17 11:56:00,
2013-09-17 08:01:00,46.5,40.0,30.38,NNE,31,3.0,3.0,78,0.00,,,0.00,VWS V14.01,2013-09-17 12:01:00,
2013-09-17 08:05:00,46.7,39.9,30.38,NE,40,2.0,3.0,77,0.00,,,0.00,VWS V14.01,2013-09-17 12:05:00,
2013-09-17 08:11:00,46.9,40.4,30.38,ENE,61,1.0,4.0,78,0.00,,,0.00,VWS V14.01,2013-09-17 12:11:00,
2013-09-17 08:16:00,47.1,40.3,30.38,NE,43,0.0,2.0,77,0.00,,,0.00,VWS V14.01,2013-09-17 12:16:00,
2013-09-17 08:21:00,47.3,40.5,30.38,NE,45,3.0,4.0,77,0.00,,,0.00,VWS V14.01,2013-09-17 12:21:00,
2013-09-17 08:26:00,47.5,40.3,30.38,NE,41,3.0,3.0,76,0.00,,,0.00,VWS V14.01,2013-09-17 12:26:00,
2013-09-17 08:31:00,47.7,40.5,30.38,ENE,65,3.0,5.0,76,0.00,,,0.00,VWS V14.01,2013-09-17 12:31:00,
2013-09-17 08:36:00,47.8,40.3,30.38,NE,45,0.0,3.0,75,0.00,,,0.00,VWS V14.01,2013-09-17 12:36:00,
2013-09-17 08:41:00,48.1,40.6,30.38,NE,49,1.0,5.0,75,0.00,,,0.00,VWS V14.01,2013-09-17 12:41:00,
2013-09-17 08:46:00,48.2,40.3,30.39,NE,44,0.0,5.0,74,0.00,,,0.00,VWS V14.01,2013-09-17 12:46:00,
2013-09-17 08:51:00,48.4,40.2,30.39,NE,42,0.0,5.0,73,0.00,,,0.00,VWS V14.01,2013-09-17 12:51:00,
2013-09-17 08:56:00,48.6,40.3,30.39,NE,53,5.0,5.0,73,0.00,,,0.00,VWS V14.01,2013-09-17 12:56:00,
2013-09-17 09:01:00,48.7,39.4,30.40,ENE,57,7.0,8.0,70,0.00,,,0.00,VWS V14.01,2013-09-17 13:01:00,
2013-09-17 09:06:00,48.8,39.5,30.40,NNE,25,4.0,5.0,70,0.00,,,0.00,VWS V14.01,2013-09-17 13:06:00,
2013-09-17 09:11:00,48.9,39.6,30.40,NNE,27,2.0,7.0,70,0.00,,,0.00,VWS V14.01,2013-09-17 13:11:00,
2013-09-17 09:16:00,49.2,39.8,30.40,ENE,59,3.0,6.0,70,0.00,,,0.00,VWS V14.01,2013-09-17 13:16:00,
2013-09-17 09:21:00,49.4,40.0,30.40,NE,34,2.0,6.0,70,0.00,,,0.00,VWS V14.01,2013-09-17 13:21:00,
2013-09-17 09:26:00,49.6,39.9,30.40,NNE,17,3.0,6.0,69,0.00,,,0.00,VWS V14.01,2013-09-17 13:26:00,
2013-09-17 09:31:00,49.9,40.2,30.41,NE,35,0.0,6.0,69,0.00,,,0.00,VWS V14.01,2013-09-17 13:31:00,
2013-09-17 09:36:00,50.1,39.6,30.41,North,9,1.0,6.0,67,0.00,,,0.00,VWS V14.01,2013-09-17 13:36:00,
2013-09-17 09:41:00,50.3,40.2,30.41,NE,34,0.0,6.0,68,0.00,,,0.00,VWS V14.01,2013-09-17 13:41:00,
2013-09-17 09:46:00,50.6,40.8,30.42,North,355,1.0,6.0,69,0.00,,,0.00,VWS V14.01,2013-09-17 13:46:00,
2013-09-17 09:51:00,50.8,40.2,30.42,NE,48,3.0,6.0,67,0.00,,,0.00,VWS V14.01,2013-09-17 13:51:00,
2013-09-17 09:56:00,51.0,40.1,30.42,NNE,25,0.0,4.0,66,0.00,,,0.00,VWS V14.01,2013-09-17 13:56:00,
2013-09-17 10:01:00,51.5,40.5,30.42,NNE,23,1.0,5.0,66,0.00,,,0.00,VWS V14.01,2013-09-17 14:01:00,
2013-09-17 10:06:00,51.9,39.7,30.42,NE,52,3.0,4.0,63,0.00,,,0.00,VWS V14.01,2013-09-17 14:06:00,
2013-09-17 10:11:00,52.3,40.1,30.42,NNE,26,0.0,4.0,63,0.00,,,0.00,VWS V14.01,2013-09-17 14:11:00,
2013-09-17 10:16:00,52.8,41.0,30.42,North,9,1.0,4.0,64,0.00,,,0.00,VWS V14.01,2013-09-17 14:16:00,
2013-09-17 10:20:00,53.3,40.6,30.42,NNE,28,1.0,4.0,62,0.00,,,0.00,VWS V14.01,2013-09-17 14:20:00,
2013-09-17 10:26:00,54.0,42.1,30.42,NE,38,1.0,3.0,64,0.00,,,0.00,VWS V14.01,2013-09-17 14:26:00,
2013-09-17 10:30:00,54.4,41.2,30.42,NE,38,1.0,3.0,61,0.00,,,0.00,VWS V14.01,2013-09-17 14:30:00,
2013-09-17 10:36:00,54.6,40.6,30.42,NE,48,0.0,3.0,59,0.00,,,0.00,VWS V14.01,2013-09-17 14:36:00,
2013-09-17 10:41:00,54.6,40.1,30.42,NNE,16,2.0,3.0,58,0.00,,,0.00,VWS V14.01,2013-09-17 14:41:00,
2013-09-17 10:45:00,54.6,40.6,30.42,ENE,66,0.0,3.0,59,0.00,,,0.00,VWS V14.01,2013-09-17 14:45:00,
2013-09-17 10:50:00,54.9,41.3,30.42,NE,38,1.0,3.0,60,0.00,,,0.00,VWS V14.01,2013-09-17 14:50:00,
2013-09-17 10:55:00,55.1,40.6,30.42,NE,54,2.0,2.0,58,0.00,,,0.00,VWS V14.01,2013-09-17 14:55:00,
2013-09-17 11:00:00,55.2,41.6,30.42,NNE,32,0.0,6.0,60,0.00,,,0.00,VWS V14.01,2013-09-17 15:00:00,
2013-09-17 11:05:00,55.9,42.7,30.42,NE,43,2.0,3.0,61,0.00,,,0.00,VWS V14.01,2013-09-17 15:05:00,
2013-09-17 11:10:00,56.4,42.7,30.42,North,360,0.0,3.0,60,0.00,,,0.00,VWS V14.01,2013-09-17 15:10:00,
2013-09-17 11:15:00,56.6,41.6,30.42,NE,36,1.0,3.0,57,0.00,,,0.00,VWS V14.01,2013-09-17 15:15:00,
2013-09-17 11:20:00,56.6,41.6,30.42,East,82,0.0,4.0,57,0.00,,,0.00,VWS V14.01,2013-09-17 15:20:00,
2013-09-17 11:25:00,57.1,42.5,30.42,ESE,119,1.0,4.0,58,0.00,,,0.00,VWS V14.01,2013-09-17 15:25:00,
2013-09-17 11:30:00,57.6,42.5,30.42,SE,146,3.0,4.0,57,0.00,,,0.00,VWS V14.01,2013-09-17 15:30:00,
2013-09-17 11:35:00,57.7,42.1,30.42,South,172,0.0,5.0,56,0.00,,,0.00,VWS V14.01,2013-09-17 15:35:00,
2013-09-17 11:40:00,58.0,42.4,30.42,NE,39,0.0,5.0,56,0.00,,,0.00,VWS V14.01,2013-09-17 15:40:00,
2013-09-17 11:45:00,58.2,43.1,30.42,ENE,69,1.0,2.0,57,0.00,,,0.00,VWS V14.01,2013-09-17 15:45:00,
2013-09-17 11:50:00,58.1,42.5,30.42,NE,37,0.0,3.0,56,0.00,,,0.00,VWS V14.01,2013-09-17 15:50:00,
2013-09-17 11:55:00,58.5,42.9,30.42,ESE,119,0.0,3.0,56,0.00,,,0.00,VWS V14.01,2013-09-17 15:55:00,
2013-09-17 12:00:00,58.6,43.0,30.41,NE,40,2.0,3.0,56,0.00,,,0.00,VWS V14.01,2013-09-17 16:00:00,
2013-09-17 12:05:00,58.4,42.8,30.41,NE,48,2.0,3.0,56,0.00,,,0.00,VWS V14.01,2013-09-17 16:05:00,
2013-09-17 12:10:00,57.9,41.4,30.41,NE,40,0.0,3.0,54,0.00,,,0.00,VWS V14.01,2013-09-17 16:10:00,
2013-09-17 12:15:00,57.9,42.3,30.40,NE,40,2.0,3.0,56,0.00,,,0.00,VWS V14.01,2013-09-17 16:15:00,
2013-09-17 12:20:00,57.7,42.1,30.40,NE,40,1.0,4.0,56,0.00,,,0.00,VWS V14.01,2013-09-17 16:20:00,
2013-09-17 12:25:00,57.9,41.8,30.40,NNE,30,1.0,3.0,55,0.00,,,0.00,VWS V14.01,2013-09-17 16:25:00,
2013-09-17 12:30:00,57.9,42.3,30.40,NE,38,1.0,3.0,56,0.00,,,0.00,VWS V14.01,2013-09-17 16:30:00,
2013-09-17 12:35:00,57.8,42.7,30.40,ESE,120,2.0,3.0,57,0.00,,,0.00,VWS V14.01,2013-09-17 16:35:00,
2013-09-17 12:40:00,57.9,42.3,30.40,ENE,59,0.0,3.0,56,0.00,,,0.00,VWS V14.01,2013-09-17 16:40:00,
2013-09-17 12:45:00,57.9,42.8,30.39,NNE,19,1.0,1.0,57,0.00,,,0.00,VWS V14.01,2013-09-17 16:45:00,
2013-09-17 12:50:00,57.8,42.7,30.39,NE,38,1.0,5.0,57,0.00,,,0.00,VWS V14.01,2013-09-17 16:50:00,
2013-09-17 12:55:00,57.7,43.5,30.39,NE,43,0.0,2.0,59,0.00,,,0.00,VWS V14.01,2013-09-17 16:55:00,
2013-09-17 13:00:00,57.8,44.0,30.39,West,272,1.0,4.0,60,0.00,,,0.00,VWS V14.01,2013-09-17 17:00:00,
2013-09-17 13:05:00,57.7,43.9,30.39,South,171,0.0,4.0,60,0.00,,,0.00,VWS V14.01,2013-09-17 17:05:00,
2013-09-17 13:10:00,57.9,43.7,30.39,ENE,59,0.0,4.0,59,0.00,,,0.00,VWS V14.01,2013-09-17 17:10:00,
2013-09-17 13:15:00,57.7,42.1,30.39,ENE,70,0.0,4.0,56,0.00,,,0.00,VWS V14.01,2013-09-17 17:15:00,
2013-09-17 13:20:00,57.7,43.5,30.39,WNW,287,0.0,4.0,59,0.00,,,0.00,VWS V14.01,2013-09-17 17:20:00,
2013-09-17 13:25:00,57.8,42.7,30.39,NE,47,0.0,3.0,57,0.00,,,0.00,VWS V14.01,2013-09-17 17:25:00,
2013-09-17 13:30:00,57.8,42.7,30.39,NW,308,4.0,4.0,57,0.00,,,0.00,VWS V14.01,2013-09-17 17:30:00,
2013-09-17 13:35:00,57.7,43.5,30.39,North,355,2.0,3.0,59,0.00,,,0.00,VWS V14.01,2013-09-17 17:35:00,
2013-09-17 13:40:00,57.9,43.2,30.39,North,355,0.0,3.0,58,0.00,,,0.00,VWS V14.01,2013-09-17 17:40:00,
2013-09-17 13:45:00,57.9,43.2,30.39,North,360,1.0,1.0,58,0.00,,,0.00,VWS V14.01,2013-09-17 17:45:00,
2013-09-17 13:51:00,58.1,43.4,30.38,North,360,0.0,1.0,58,0.00,,,0.00,VWS V14.01,2013-09-17 17:51:00,
2013-09-17 13:56:00,58.4,43.7,30.38,North,5,0.0,3.0,58,0.00,,,0.00,VWS V14.01,2013-09-17 17:56:00,
2013-09-17 14:01:00,58.6,43.0,30.37,South,169,0.0,3.0,56,0.00,,,0.00,VWS V14.01,2013-09-17 18:01:00,
2013-09-17 14:06:00,58.7,43.1,30.37,South,169,0.0,0.0,56,0.00,,,0.00,VWS V14.01,2013-09-17 18:06:00,
2013-09-17 14:11:00,58.9,43.2,30.37,NNE,13,0.0,4.0,56,0.00,,,0.00,VWS V14.01,2013-09-17 18:11:00,
2013-09-17 14:16:00,58.9,42.3,30.37,North,5,0.0,2.0,54,0.00,,,0.00,VWS V14.01,2013-09-17 18:16:00,
2013-09-17 14:21:00,59.0,42.4,30.37,NNE,19,0.0,2.0,54,0.00,,,0.00,VWS V14.01,2013-09-17 18:21:00,
2013-09-17 14:26:00,59.3,43.6,30.37,NE,34,0.0,5.0,56,0.00,,,0.00,VWS V14.01,2013-09-17 18:26:00,
2013-09-17 14:31:00,59.4,43.2,30.36,East,86,0.0,5.0,55,0.00,,,0.00,VWS V14.01,2013-09-17 18:31:00,
2013-09-17 14:36:00,59.5,43.3,30.36,NE,44,0.0,2.0,55,0.00,,,0.00,VWS V14.01,2013-09-17 18:36:00,
2013-09-17 14:41:00,59.6,43.4,30.36,NNW,327,3.0,3.0,55,0.00,,,0.00,VWS V14.01,2013-09-17 18:41:00,
2013-09-17 14:46:00,59.6,43.0,30.36,WNW,283,0.0,4.0,54,0.00,,,0.00,VWS V14.01,2013-09-17 18:46:00,
2013-09-17 14:51:00,59.8,43.1,30.36,East,90,0.0,4.0,54,0.00,,,0.00,VWS V14.01,2013-09-17 18:51:00,
2013-09-17 14:56:00,59.9,43.2,30.36,NE,53,1.0,4.0,54,0.00,,,0.00,VWS V14.01,2013-09-17 18:56:00,
2013-09-17 15:01:00,60.2,44.5,30.36,NE,53,1.0,4.0,56,0.00,,,0.00,VWS V14.01,2013-09-17 19:01:00,
2013-09-17 15:06:00,60.3,44.1,30.36,NE,52,0.0,2.0,55,0.00,,,0.00,VWS V14.01,2013-09-17 19:06:00,
2013-09-17 15:11:00,60.3,43.1,30.36,NE,38,0.0,3.0,53,0.00,,,0.00,VWS V14.01,2013-09-17 19:11:00,
2013-09-17 15:16:00,60.2,43.0,30.36,WNW,289,0.0,2.0,53,0.00,,,0.00,VWS V14.01,2013-09-17 19:16:00,
2013-09-17 15:21:00,60.1,41.9,30.36,North,5,1.0,3.0,51,0.00,,,0.00,VWS V14.01,2013-09-17 19:21:00,
2013-09-17 15:26:00,60.0,42.3,30.36,North,5,1.0,2.0,52,0.00,,,0.00,VWS V14.01,2013-09-17 19:26:00,
2013-09-17 15:31:00,60.0,42.3,30.35,North,5,0.0,2.0,52,0.00,,,0.00,VWS V14.01,2013-09-17 19:31:00,
2013-09-17 15:36:00,60.0,42.3,30.35,NE,34,0.0,2.0,52,0.00,,,0.00,VWS V14.01,2013-09-17 19:36:00,
2013-09-17 15:41:00,60.0,42.3,30.35,NE,34,0.0,2.0,52,0.00,,,0.00,VWS V14.01,2013-09-17 19:41:00,
2013-09-17 15:46:00,60.0,41.8,30.35,WNW,290,0.0,6.0,51,0.00,,,0.00,VWS V14.01,2013-09-17 19:46:00,
2013-09-17 15:51:00,60.0,42.3,30.35,WNW,300,0.0,6.0,52,0.00,,,0.00,VWS V14.01,2013-09-17 19:51:00,
2013-09-17 15:56:00,60.2,42.0,30.35,WNW,302,1.0,5.0,51,0.00,,,0.00,VWS V14.01,2013-09-17 19:56:00,
2013-09-17 16:01:00,60.3,41.1,30.34,ENE,78,1.0,5.0,49,0.00,,,0.00,VWS V14.01,2013-09-17 20:01:00,
2013-09-17 16:06:00,60.4,41.7,30.34,North,360,1.0,5.0,50,0.00,,,0.00,VWS V14.01,2013-09-17 20:06:00,
2013-09-17 16:11:00,60.5,41.8,30.34,North,10,0.0,6.0,50,0.00,,,0.00,VWS V14.01,2013-09-17 20:11:00,
2013-09-17 16:16:00,60.6,41.9,30.35,NNE,14,0.0,2.0,50,0.00,,,0.00,VWS V14.01,2013-09-17 20:16:00,
2013-09-17 16:21:00,60.5,42.3,30.35,NNE,25,1.0,4.0,51,0.00,,,0.00,VWS V14.01,2013-09-17 20:21:00,
2013-09-17 16:26:00,60.4,42.2,30.35,NNW,338,1.0,2.0,51,0.00,,,0.00,VWS V14.01,2013-09-17 20:26:00,
2013-09-17 16:31:00,60.3,41.1,30.35,ENE,59,2.0,3.0,49,0.00,,,0.00,VWS V14.01,2013-09-17 20:31:00,
2013-09-17 16:36:00,60.3,41.1,30.35,WNW,283,0.0,6.0,49,0.00,,,0.00,VWS V14.01,2013-09-17 20:36:00,
2013-09-17 16:41:00,60.5,40.2,30.35,NNW,338,0.0,6.0,47,0.00,,,0.00,VWS V14.01,2013-09-17 20:41:00,
2013-09-17 16:46:00,60.6,40.8,30.34,North,350,0.0,2.0,48,0.00,,,0.00,VWS V14.01,2013-09-17 20:46:00,
2013-09-17 16:51:00,60.7,39.8,30.34,NNE,15,1.0,2.0,46,0.00,,,0.00,VWS V14.01,2013-09-17 20:51:00,
2013-09-17 16:56:00,60.7,40.9,30.34,NE,34,2.0,2.0,48,0.00,,,0.00,VWS V14.01,2013-09-17 20:56:00,
2013-09-17 17:01:00,60.9,40.5,30.34,NNE,13,1.0,2.0,47,0.00,,,0.00,VWS V14.01,2013-09-17 21:01:00,
2013-09-17 17:06:00,60.9,40.5,30.34,NNE,23,0.0,2.0,47,0.00,,,0.00,VWS V14.01,2013-09-17 21:06:00,
2013-09-17 17:11:00,61.0,41.7,30.34,NNE,22,0.0,2.0,49,0.00,,,0.00,VWS V14.01,2013-09-17 21:11:00,
2013-09-17 17:16:00,61.1,41.3,30.34,North,350,0.0,3.0,48,0.00,,,0.00,VWS V14.01,2013-09-17 21:16:00,
2013-09-17 17:21:00,61.1,41.3,30.34,North,351,0.0,3.0,48,0.00,,,0.00,VWS V14.01,2013-09-17 21:21:00,
2013-09-17 17:26:00,61.3,42.0,30.34,North,351,0.0,0.0,49,0.00,,,0.00,VWS V14.01,2013-09-17 21:26:00,
2013-09-17 17:31:00,61.3,41.5,30.34,North,350,0.0,1.0,48,0.00,,,0.00,VWS V14.01,2013-09-17 21:31:00,
2013-09-17 17:36:00,61.3,40.9,30.34,North,350,0.0,1.0,47,0.00,,,0.00,VWS V14.01,2013-09-17 21:36:00,
2013-09-17 17:41:00,61.3,41.5,30.34,NNW,336,0.0,2.0,48,0.00,,,0.00,VWS V14.01,2013-09-17 21:41:00,
2013-09-17 17:46:00,61.2,41.4,30.34,NNW,337,1.0,1.0,48,0.00,,,0.00,VWS V14.01,2013-09-17 21:46:00,
2013-09-17 17:51:00,61.0,41.7,30.34,NNW,337,0.0,1.0,49,0.00,,,0.00,VWS V14.01,2013-09-17 21:51:00,
2013-09-17 17:56:00,60.8,42.1,30.34,NNW,337,0.0,0.0,50,0.00,,,0.00,VWS V14.01,2013-09-17 21:56:00,
2013-09-17 18:01:00,60.6,42.4,30.34,NNW,337,0.0,1.0,51,0.00,,,0.00,VWS V14.01,2013-09-17 22:01:00,
2013-09-17 18:06:00,60.3,42.6,30.34,NNW,337,0.0,0.0,52,0.00,,,0.00,VWS V14.01,2013-09-17 22:06:00,
2013-09-17 18:11:00,60.0,41.8,30.34,NNW,337,0.0,1.0,51,0.00,,,0.00,VWS V14.01,2013-09-17 22:11:00,
2013-09-17 18:16:00,59.8,42.2,30.34,NNW,337,0.0,0.0,52,0.00,,,0.00,VWS V14.01,2013-09-17 22:16:00,
2013-09-17 18:21:00,59.5,42.9,30.34,NNW,337,0.0,0.0,54,0.00,,,0.00,VWS V14.01,2013-09-17 22:21:00,
2013-09-17 18:26:00,59.1,43.0,30.34,NNW,337,0.0,0.0,55,0.00,,,0.00,VWS V14.01,2013-09-17 22:26:00,
2013-09-17 18:31:00,58.8,43.2,30.34,NNW,337,0.0,0.0,56,0.00,,,0.00,VWS V14.01,2013-09-17 22:31:00,
2013-09-17 18:36:00,58.5,43.3,30.34,NNW,337,0.0,0.0,57,0.00,,,0.00,VWS V14.01,2013-09-17 22:36:00,
2013-09-17 18:41:00,58.1,43.4,30.34,NNW,337,0.0,0.0,58,0.00,,,0.00,VWS V14.01,2013-09-17 22:41:00,
2013-09-17 18:46:00,57.8,43.6,30.33,NNW,337,0.0,0.0,59,0.00,,,0.00,VWS V14.01,2013-09-17 22:46:00,
2013-09-17 18:51:00,57.4,44.5,30.33,NNW,337,0.0,0.0,62,0.00,,,0.00,VWS V14.01,2013-09-17 22:51:00,
2013-09-17 18:56:00,57.0,44.5,30.33,NNW,337,0.0,0.0,63,0.00,,,0.00,VWS V14.01,2013-09-17 22:56:00,
2013-09-17 19:02:00,56.6,44.2,30.33,NNW,337,0.0,0.0,63,0.00,,,0.00,VWS V14.01,2013-09-17 23:02:00,
2013-09-17 19:07:00,56.2,44.2,30.33,NNW,337,0.0,0.0,64,0.00,,,0.00,VWS V14.01,2013-09-17 23:07:00,
2013-09-17 19:12:00,55.7,44.1,30.33,NNW,337,0.0,0.0,65,0.00,,,0.00,VWS V14.01,2013-09-17 23:12:00,
2013-09-17 19:17:00,55.2,44.0,30.33,NNW,337,0.0,0.0,66,0.00,,,0.00,VWS V14.01,2013-09-17 23:17:00,
2013-09-17 19:22:00,54.8,44.5,30.33,NNW,337,0.0,0.0,68,0.00,,,0.00,VWS V14.01,2013-09-17 23:22:00,
2013-09-17 19:27:00,54.1,44.2,30.33,NNW,337,0.0,0.0,69,0.00,,,0.00,VWS V14.01,2013-09-17 23:27:00,
2013-09-17 19:32:00,53.4,43.9,30.33,NNW,337,0.0,0.0,70,0.00,,,0.00,VWS V14.01,2013-09-17 23:32:00,
2013-09-17 19:37:00,52.8,43.7,30.33,NNW,337,0.0,0.0,71,0.00,,,0.00,VWS V14.01,2013-09-17 23:37:00,
2013-09-17 19:42:00,52.3,43.9,30.33,NNW,337,0.0,0.0,73,0.00,,,0.00,VWS V14.01,2013-09-17 23:42:00,
2013-09-17 19:47:00,51.9,43.9,30.33,NNW,337,0.0,0.0,74,0.00,,,0.00,VWS V14.01,2013-09-17 23:47:00,
2013-09-17 19:52:00,51.5,43.5,30.33,NNW,337,0.0,0.0,74,0.00,,,0.00,VWS V14.01,2013-09-17 23:52:00,
2013-09-17 19:57:00,51.3,43.3,30.33,NNW,337,0.0,0.0,74,0.00,,,0.00,VWS V14.01,2013-09-17 23:57:00,
2013-09-17 20:02:00,51.0,43.4,30.33,NNW,337,0.0,0.0,75,0.00,,,0.00,VWS V14.01,2013-09-18 00:02:00,
2013-09-17 20:07:00,50.5,43.6,30.33,NNW,337,0.0,0.0,77,0.00,,,0.00,VWS V14.01,2013-09-18 00:07:00,
2013-09-17 20:12:00,50.1,43.5,30.33,NNW,337,0.0,0.0,78,0.00,,,0.00,VWS V14.01,2013-09-18 00:12:00,
2013-09-17 20:17:00,49.7,43.5,30.34,NNW,337,0.0,0.0,79,0.00,,,0.00,VWS V14.01,2013-09-18 00:17:00,
2013-09-17 20:22:00,49.4,43.5,30.34,NNW,337,0.0,0.0,80,0.00,,,0.00,VWS V14.01,2013-09-18 00:22:00,
2013-09-17 20:27:00,49.2,43.3,30.34,NNW,337,0.0,0.0,80,0.00,,,0.00,VWS V14.01,2013-09-18 00:27:00,
2013-09-17 20:33:00,48.9,43.3,30.34,NNW,337,0.0,0.0,81,0.00,,,0.00,VWS V14.01,2013-09-18 00:33:00,
2013-09-17 20:38:00,48.6,43.4,30.34,NNW,337,0.0,0.0,82,0.00,,,0.00,VWS V14.01,2013-09-18 00:38:00,
2013-09-17 20:43:00,48.3,43.1,30.34,NNW,337,0.0,0.0,82,0.00,,,0.00,VWS V14.01,2013-09-18 00:43:00,
2013-09-17 20:48:00,48.1,43.2,30.34,NNW,337,0.0,0.0,83,0.00,,,0.00,VWS V14.01,2013-09-18 00:48:00,
2013-09-17 20:53:00,47.9,43.3,30.34,NNW,337,0.0,0.0,84,0.00,,,0.00,VWS V14.01,2013-09-18 00:53:00,
2013-09-17 20:57:00,47.7,43.1,30.34,NNW,337,0.0,0.0,84,0.00,,,0.00,VWS V14.01,2013-09-18 00:57:00,
2013-09-17 21:02:00,47.6,43.0,30.34,NNW,337,0.0,0.0,84,0.00,,,0.00,VWS V14.01,2013-09-18 01:02:00,
2013-09-17 21:07:00,47.5,42.9,30.34,NNW,337,0.0,0.0,84,0.00,,,0.00,VWS V14.01,2013-09-18 01:07:00,
2013-09-17 21:12:00,47.5,42.9,30.34,NNW,337,0.0,0.0,84,0.00,,,0.00,VWS V14.01,2013-09-18 01:12:00,
2013-09-17 21:17:00,47.3,43.0,30.34,NNW,337,0.0,0.0,85,0.00,,,0.00,VWS V14.01,2013-09-18 01:17:00,
2013-09-17 21:22:00,47.1,43.1,30.34,NNW,337,0.0,0.0,86,0.00,,,0.00,VWS V14.01,2013-09-18 01:22:00,
2013-09-17 21:27:00,46.9,42.9,30.34,NNW,337,0.0,0.0,86,0.00,,,0.00,VWS V14.01,2013-09-18 01:27:00,
2013-09-17 21:32:00,46.8,42.8,30.34,NNW,337,0.0,0.0,86,0.00,,,0.00,VWS V14.01,2013-09-18 01:32:00,
2013-09-17 21:37:00,46.7,43.0,30.34,NNW,337,0.0,0.0,87,0.00,,,0.00,VWS V14.01,2013-09-18 01:37:00,
2013-09-17 21:42:00,46.6,42.9,30.34,NNW,337,0.0,0.0,87,0.00,,,0.00,VWS V14.01,2013-09-18 01:42:00,
2013-09-17 21:47:00,46.5,42.8,30.34,NNW,337,0.0,0.0,87,0.00,,,0.00,VWS V14.01,2013-09-18 01:47:00,
2013-09-17 21:52:00,46.5,42.8,30.34,NNW,337,0.0,0.0,87,0.00,,,0.00,VWS V14.01,2013-09-18 01:52:00,
2013-09-17 21:57:00,46.4,42.8,30.34,NNW,337,0.0,0.0,87,0.00,,,0.00,VWS V14.01,2013-09-18 01:57:00,
2013-09-17 22:02:00,46.3,42.7,30.34,NNW,337,0.0,0.0,87,0.00,,,0.00,VWS V14.01,2013-09-18 02:02:00,
2013-09-17 22:07:00,46.1,42.8,30.34,NNW,337,0.0,0.0,88,0.00,,,0.00,VWS V14.01,2013-09-18 02:07:00,
2013-09-17 22:12:00,46.0,42.7,30.34,NNW,337,0.0,0.0,88,0.00,,,0.00,VWS V14.01,2013-09-18 02:12:00,
2013-09-17 22:17:00,45.9,42.5,30.34,NNW,337,0.0,0.0,88,0.00,,,0.00,VWS V14.01,2013-09-18 02:17:00,
2013-09-17 22:22:00,45.8,42.8,30.34,NNW,337,0.0,0.0,89,0.00,,,0.00,VWS V14.01,2013-09-18 02:22:00,
2013-09-17 22:27:00,45.8,42.8,30.34,NNW,337,0.0,0.0,89,0.00,,,0.00,VWS V14.01,2013-09-18 02:27:00,
2013-09-17 22:32:00,45.7,42.7,30.34,NNW,337,0.0,0.0,89,0.00,,,0.00,VWS V14.01,2013-09-18 02:32:00,
2013-09-17 22:37:00,45.7,42.7,30.34,NNW,337,0.0,0.0,89,0.00,,,0.00,VWS V14.01,2013-09-18 02:37:00,
2013-09-17 22:43:00,45.6,42.8,30.34,NNW,337,0.0,0.0,90,0.00,,,0.00,VWS V14.01,2013-09-18 02:43:00,
2013-09-17 22:48:00,45.5,42.7,30.34,NNW,337,0.0,0.0,90,0.00,,,0.00,VWS V14.01,2013-09-18 02:48:00,
2013-09-17 22:53:00,45.5,42.7,30.34,NNW,337,0.0,0.0,90,0.00,,,0.00,VWS V14.01,2013-09-18 02:53:00,
2013-09-17 22:58:00,45.4,42.6,30.34,NNW,337,0.0,0.0,90,0.00,,,0.00,VWS V14.01,2013-09-18 02:58:00,
2013-09-17 23:03:00,45.4,42.9,30.35,NNW,337,0.0,0.0,91,0.00,,,0.00,VWS V14.01,2013-09-18 03:03:00,
2013-09-17 23:08:00,45.4,42.9,30.35,NNW,337,0.0,0.0,91,0.00,,,0.00,VWS V14.01,2013-09-18 03:08:00,
2013-09-17 23:13:00,45.3,42.8,30.35,NNW,337,0.0,0.0,91,0.00,,,0.00,VWS V14.01,2013-09-18 03:13:00,
2013-09-17 23:18:00,45.3,42.8,30.34,NNW,337,0.0,0.0,91,0.00,,,0.00,VWS V14.01,2013-09-18 03:18:00,
2013-09-17 23:23:00,45.3,42.8,30.34,NNW,337,0.0,0.0,91,0.00,,,0.00,VWS V14.01,2013-09-18 03:23:00,
2013-09-17 23:28:00,45.2,42.7,30.34,NNW,337,0.0,0.0,91,0.00,,,0.00,VWS V14.01,2013-09-18 03:28:00,
2013-09-17 23:33:00,45.2,42.7,30.34,NNW,337,0.0,0.0,91,0.00,,,0.00,VWS V14.01,2013-09-18 03:33:00,
2013-09-17 23:38:00,45.2,42.7,30.34,NNW,337,0.0,0.0,91,0.00,,,0.00,VWS V14.01,2013-09-18 03:38:00,
2013-09-17 23:43:00,45.2,42.7,30.34,NNW,337,0.0,0.0,91,0.00,,,0.00,VWS V14.01,2013-09-18 03:43:00,
2013-09-17 23:48:00,45.1,42.9,30.34,NNW,337,0.0,0.0,92,0.00,,,0.00,VWS V14.01,2013-09-18 03:48:00,
2013-09-17 23:53:00,45.1,42.9,30.34,NNW,337,0.0,0.0,92,0.00,,,0.00,VWS V14.01,2013-09-18 03:53:00,
2013-09-17 23:58:00,45.1,42.9,30.34,NNW,337,0.0,0.0,92,0.00,,,0.00,VWS V14.01,2013-09-18 03:58:00,